Datum;"Wasserstand in cm";"Stationsnummer: 5879500";"Stationsname: J�terbog-B�rgerm�hle";"Gew?sser: Nuthe";"Fehlwerte: -777"
"01.04.2024 00:00";70
"01.04.2024 00:15";70
"01.04.2024 00:30";70
"01.04.2024 00:45";70
"01.04.2024 01:00";70
"01.04.2024 01:15";69
"01.04.2024 01:30";69
"01.04.2024 01:45";69
"01.04.2024 02:00";69
"01.04.2024 02:15";69
"01.04.2024 02:30";69
"01.04.2024 02:45";69
"01.04.2024 03:00";69
"01.04.2024 03:15";69
"01.04.2024 03:30";69
"01.04.2024 03:45";69
"01.04.2024 04:00";69
"01.04.2024 04:15";69
"01.04.2024 04:30";69
"01.04.2024 04:45";69
"01.04.2024 05:00";68
"01.04.2024 05:15";68
"01.04.2024 05:30";68
"01.04.2024 05:45";68
"01.04.2024 06:00";68
"01.04.2024 06:15";68
"01.04.2024 06:30";68
"01.04.2024 06:45";68
"01.04.2024 07:00";68
"01.04.2024 07:15";68
"01.04.2024 07:30";68
"01.04.2024 07:45";68
"01.04.2024 08:00";68
"01.04.2024 08:15";68
"01.04.2024 08:30";68
"01.04.2024 08:45";68
"01.04.2024 09:00";68
"01.04.2024 09:15";68
"01.04.2024 09:30";68
"01.04.2024 09:45";69
"01.04.2024 10:00";69
"01.04.2024 10:15";69
"01.04.2024 10:30";69
"01.04.2024 10:45";70
"01.04.2024 11:00";70
"01.04.2024 11:15";70
"01.04.2024 11:30";70
"01.04.2024 11:45";70
"01.04.2024 12:00";70
"01.04.2024 12:15";70
"01.04.2024 12:30";70
"01.04.2024 12:45";70
"01.04.2024 13:00";71
"01.04.2024 13:15";71
"01.04.2024 13:30";71
"01.04.2024 13:45";71
"01.04.2024 14:00";71
"01.04.2024 14:15";71
"01.04.2024 14:30";71
"01.04.2024 14:45";71
"01.04.2024 15:00";71
"01.04.2024 15:15";71
"01.04.2024 15:30";71
"01.04.2024 15:45";70
"01.04.2024 16:00";70
"01.04.2024 16:15";70
"01.04.2024 16:30";70
"01.04.2024 16:45";70
"01.04.2024 17:00";70
"01.04.2024 17:15";70
"01.04.2024 17:30";70
"01.04.2024 17:45";70
"01.04.2024 18:00";70
"01.04.2024 18:15";70
"01.04.2024 18:30";70
"01.04.2024 18:45";70
"01.04.2024 19:00";70
"01.04.2024 19:15";70
"01.04.2024 19:30";70
"01.04.2024 19:45";70
"01.04.2024 20:00";70
"01.04.2024 20:15";70
"01.04.2024 20:30";70
"01.04.2024 20:45";70
"01.04.2024 21:00";70
"01.04.2024 21:15";70
"01.04.2024 21:30";70
"01.04.2024 21:45";70
"01.04.2024 22:00";70
"01.04.2024 22:15";70
"01.04.2024 22:30";70
"01.04.2024 22:45";70
"01.04.2024 23:00";70
"01.04.2024 23:15";70
"01.04.2024 23:30";69
"01.04.2024 23:45";69
"02.04.2024 00:00";69
"02.04.2024 00:15";69
"02.04.2024 00:30";69
"02.04.2024 00:45";69
"02.04.2024 01:00";69
"02.04.2024 01:15";69
"02.04.2024 01:30";68
"02.04.2024 01:45";68
"02.04.2024 02:00";68
"02.04.2024 02:15";68
"02.04.2024 02:30";68
"02.04.2024 02:45";68
"02.04.2024 03:00";68
"02.04.2024 03:15";68
"02.04.2024 03:30";68
"02.04.2024 03:45";68
"02.04.2024 04:00";68
"02.04.2024 04:15";68
"02.04.2024 04:30";68
"02.04.2024 04:45";68
"02.04.2024 05:00";68
"02.04.2024 05:15";68
"02.04.2024 05:30";68
"02.04.2024 05:45";68
"02.04.2024 06:00";68
"02.04.2024 06:15";68
"02.04.2024 06:30";68
"02.04.2024 06:45";68
"02.04.2024 07:00";68
"02.04.2024 07:15";68
"02.04.2024 07:30";68
"02.04.2024 07:45";68
"02.04.2024 08:00";69
"02.04.2024 08:15";69
"02.04.2024 08:30";69
"02.04.2024 08:45";69
"02.04.2024 09:00";70
"02.04.2024 09:15";70
"02.04.2024 09:30";70
"02.04.2024 09:45";70
"02.04.2024 10:00";70
"02.04.2024 10:15";70
"02.04.2024 10:30";70
"02.04.2024 10:45";71
"02.04.2024 11:00";71
"02.04.2024 11:15";71
"02.04.2024 11:30";71
"02.04.2024 11:45";71
"02.04.2024 12:00";71
"02.04.2024 12:15";71
"02.04.2024 12:30";71
"02.04.2024 12:45";70
"02.04.2024 13:00";71
"02.04.2024 13:15";71
"02.04.2024 13:30";71
"02.04.2024 13:45";70
"02.04.2024 14:00";71
"02.04.2024 14:15";71
"02.04.2024 14:30";71
"02.04.2024 14:45";71
"02.04.2024 15:00";70
"02.04.2024 15:15";70
"02.04.2024 15:30";70
"02.04.2024 15:45";70
"02.04.2024 16:00";69
"02.04.2024 16:15";69
"02.04.2024 16:30";69
"02.04.2024 16:45";69
"02.04.2024 17:00";69
"02.04.2024 17:15";69
"02.04.2024 17:30";70
"02.04.2024 17:45";69
"02.04.2024 18:00";69
"02.04.2024 18:15";70
"02.04.2024 18:30";70
"02.04.2024 18:45";70
"02.04.2024 19:00";70
"02.04.2024 19:15";70
"02.04.2024 19:30";70
"02.04.2024 19:45";70
"02.04.2024 20:00";70
"02.04.2024 20:15";71
"02.04.2024 20:30";71
"02.04.2024 20:45";71
"02.04.2024 21:00";71
"02.04.2024 21:15";71
"02.04.2024 21:30";71
"02.04.2024 21:45";71
"02.04.2024 22:00";72
"02.04.2024 22:15";72
"02.04.2024 22:30";72
"02.04.2024 22:45";72
"02.04.2024 23:00";72
"02.04.2024 23:15";72
"02.04.2024 23:30";72
"02.04.2024 23:45";72
"03.04.2024 00:00";72
"03.04.2024 00:15";72
"03.04.2024 00:30";72
"03.04.2024 00:45";71
"03.04.2024 01:00";71
"03.04.2024 01:15";71
"03.04.2024 01:30";71
"03.04.2024 01:45";70
"03.04.2024 02:00";70
"03.04.2024 02:15";70
"03.04.2024 02:30";70
"03.04.2024 02:45";69
"03.04.2024 03:00";69
"03.04.2024 03:15";69
"03.04.2024 03:30";69
"03.04.2024 03:45";69
"03.04.2024 04:00";69
"03.04.2024 04:15";69
"03.04.2024 04:30";68
"03.04.2024 04:45";68
"03.04.2024 05:00";68
"03.04.2024 05:15";68
"03.04.2024 05:30";68
"03.04.2024 05:45";68
"03.04.2024 06:00";68
"03.04.2024 06:15";68
"03.04.2024 06:30";68
"03.04.2024 06:45";68
"03.04.2024 07:00";69
"03.04.2024 07:15";69
"03.04.2024 07:30";69
"03.04.2024 07:45";69
"03.04.2024 08:00";69
"03.04.2024 08:15";70
"03.04.2024 08:30";70
"03.04.2024 08:45";70
"03.04.2024 09:00";70
"03.04.2024 09:15";70
"03.04.2024 09:30";70
"03.04.2024 09:45";70
"03.04.2024 10:00";70
"03.04.2024 10:15";71
"03.04.2024 10:30";71
"03.04.2024 10:45";71
"03.04.2024 11:00";71
"03.04.2024 11:15";71
"03.04.2024 11:30";71
"03.04.2024 11:45";71
"03.04.2024 12:00";71
"03.04.2024 12:15";71
"03.04.2024 12:30";71
"03.04.2024 12:45";71
"03.04.2024 13:00";71
"03.04.2024 13:15";71
"03.04.2024 13:30";71
"03.04.2024 13:45";71
"03.04.2024 14:00";71
"03.04.2024 14:15";71
"03.04.2024 14:30";71
"03.04.2024 14:45";71
"03.04.2024 15:00";71
"03.04.2024 15:15";71
"03.04.2024 15:30";71
"03.04.2024 15:45";71
"03.04.2024 16:00";71
"03.04.2024 16:15";71
"03.04.2024 16:30";71
"03.04.2024 16:45";71
"03.04.2024 17:00";71
"03.04.2024 17:15";71
"03.04.2024 17:30";71
"03.04.2024 17:45";71
"03.04.2024 18:00";71
"03.04.2024 18:15";71
"03.04.2024 18:30";71
"03.04.2024 18:45";71
"03.04.2024 19:00";71
"03.04.2024 19:15";71
"03.04.2024 19:30";71
"03.04.2024 19:45";71
"03.04.2024 20:00";71
"03.04.2024 20:15";71
"03.04.2024 20:30";71
"03.04.2024 20:45";71
"03.04.2024 21:00";71
"03.04.2024 21:15";71
"03.04.2024 21:30";71
"03.04.2024 21:45";71
"03.04.2024 22:00";71
"03.04.2024 22:15";71
"03.04.2024 22:30";71
"03.04.2024 22:45";71
"03.04.2024 23:00";71
"03.04.2024 23:15";71
"03.04.2024 23:30";71
"03.04.2024 23:45";71
"04.04.2024 00:00";71
"04.04.2024 00:15";70
"04.04.2024 00:30";70
"04.04.2024 00:45";70
"04.04.2024 01:00";70
"04.04.2024 01:15";70
"04.04.2024 01:30";70
"04.04.2024 01:45";70
"04.04.2024 02:00";70
"04.04.2024 02:15";70
"04.04.2024 02:30";70
"04.04.2024 02:45";70
"04.04.2024 03:00";70
"04.04.2024 03:15";70
"04.04.2024 03:30";70
"04.04.2024 03:45";70
"04.04.2024 04:00";70
"04.04.2024 04:15";69
"04.04.2024 04:30";69
"04.04.2024 04:45";69
"04.04.2024 05:00";69
"04.04.2024 05:15";69
"04.04.2024 05:30";69
"04.04.2024 05:45";69
"04.04.2024 06:00";69
"04.04.2024 06:15";69
"04.04.2024 06:30";69
"04.04.2024 06:45";70
"04.04.2024 07:00";70
"04.04.2024 07:15";70
"04.04.2024 07:30";70
"04.04.2024 07:45";70
"04.04.2024 08:00";70
"04.04.2024 08:15";71
"04.04.2024 08:30";71
"04.04.2024 08:45";71
"04.04.2024 09:00";71
"04.04.2024 09:15";72
"04.04.2024 09:30";72
"04.04.2024 09:45";72
"04.04.2024 10:00";73
"04.04.2024 10:15";73
"04.04.2024 10:30";73
"04.04.2024 10:45";73
"04.04.2024 11:00";73
"04.04.2024 11:15";73
"04.04.2024 11:30";73
"04.04.2024 11:45";73
"04.04.2024 12:00";73
"04.04.2024 12:15";73
"04.04.2024 12:30";73
"04.04.2024 12:45";74
"04.04.2024 13:00";74
"04.04.2024 13:15";74
"04.04.2024 13:30";75
"04.04.2024 13:45";75
"04.04.2024 14:00";75
"04.04.2024 14:15";75
"04.04.2024 14:30";75
"04.04.2024 14:45";76
"04.04.2024 15:00";77
"04.04.2024 15:15";77
"04.04.2024 15:30";78
"04.04.2024 15:45";78
"04.04.2024 16:00";79
"04.04.2024 16:15";79
"04.04.2024 16:30";79
"04.04.2024 16:45";79
"04.04.2024 17:00";79
"04.04.2024 17:15";79
"04.04.2024 17:30";79
"04.04.2024 17:45";78
"04.04.2024 18:00";78
"04.04.2024 18:15";78
"04.04.2024 18:30";78
"04.04.2024 18:45";79
"04.04.2024 19:00";79
"04.04.2024 19:15";80
"04.04.2024 19:30";80
"04.04.2024 19:45";80
"04.04.2024 20:00";79
"04.04.2024 20:15";79
"04.04.2024 20:30";79
"04.04.2024 20:45";78
"04.04.2024 21:00";78
"04.04.2024 21:15";77
"04.04.2024 21:30";77
"04.04.2024 21:45";77
"04.04.2024 22:00";77
"04.04.2024 22:15";77
"04.04.2024 22:30";77
"04.04.2024 22:45";76
"04.04.2024 23:00";76
"04.04.2024 23:15";76
"04.04.2024 23:30";76
"04.04.2024 23:45";76
"05.04.2024 00:00";75
"05.04.2024 00:15";75
"05.04.2024 00:30";75
"05.04.2024 00:45";75
"05.04.2024 01:00";75
"05.04.2024 01:15";75
"05.04.2024 01:30";75
"05.04.2024 01:45";74
"05.04.2024 02:00";74
"05.04.2024 02:15";74
"05.04.2024 02:30";74
"05.04.2024 02:45";74
"05.04.2024 03:00";74
"05.04.2024 03:15";74
"05.04.2024 03:30";74
"05.04.2024 03:45";73
"05.04.2024 04:00";73
"05.04.2024 04:15";73
"05.04.2024 04:30";73
"05.04.2024 04:45";73
"05.04.2024 05:00";73
"05.04.2024 05:15";73
"05.04.2024 05:30";73
"05.04.2024 05:45";73
"05.04.2024 06:00";73
"05.04.2024 06:15";73
"05.04.2024 06:30";73
"05.04.2024 06:45";73
"05.04.2024 07:00";74
"05.04.2024 07:15";74
"05.04.2024 07:30";74
"05.04.2024 07:45";74
"05.04.2024 08:00";74
"05.04.2024 08:15";75
"05.04.2024 08:30";75
"05.04.2024 08:45";75
"05.04.2024 09:00";76
"05.04.2024 09:15";76
"05.04.2024 09:30";76
"05.04.2024 09:45";76
"05.04.2024 10:00";76
"05.04.2024 10:15";76
"05.04.2024 10:30";76
"05.04.2024 10:45";76
"05.04.2024 11:00";76
"05.04.2024 11:15";76
"05.04.2024 11:30";76
"05.04.2024 11:45";76
"05.04.2024 12:00";76
"05.04.2024 12:15";75
"05.04.2024 12:30";75
"05.04.2024 12:45";75
"05.04.2024 13:00";75
"05.04.2024 13:15";75
"05.04.2024 13:30";75
"05.04.2024 13:45";75
"05.04.2024 14:00";75
"05.04.2024 14:15";75
"05.04.2024 14:30";75
"05.04.2024 14:45";75
"05.04.2024 15:00";75
"05.04.2024 15:15";74
"05.04.2024 15:30";75
"05.04.2024 15:45";75
"05.04.2024 16:00";75
"05.04.2024 16:15";75
"05.04.2024 16:30";74
"05.04.2024 16:45";74
"05.04.2024 17:00";74
"05.04.2024 17:15";74
"05.04.2024 17:30";74
"05.04.2024 17:45";74
"05.04.2024 18:00";75
"05.04.2024 18:15";75
"05.04.2024 18:30";74
"05.04.2024 18:45";74
"05.04.2024 19:00";74
"05.04.2024 19:15";74
"05.04.2024 19:30";74
"05.04.2024 19:45";74
"05.04.2024 20:00";74
"05.04.2024 20:15";74
"05.04.2024 20:30";75
"05.04.2024 20:45";75
"05.04.2024 21:00";75
"05.04.2024 21:15";75
"05.04.2024 21:30";76
"05.04.2024 21:45";77
"05.04.2024 22:00";79
"05.04.2024 22:15";81
"05.04.2024 22:30";82
"05.04.2024 22:45";83
"05.04.2024 23:00";83
"05.04.2024 23:15";83
"05.04.2024 23:30";83
"05.04.2024 23:45";82
"06.04.2024 00:00";81
"06.04.2024 00:15";80
"06.04.2024 00:30";80
"06.04.2024 00:45";79
"06.04.2024 01:00";78
"06.04.2024 01:15";78
"06.04.2024 01:30";78
"06.04.2024 01:45";77
"06.04.2024 02:00";77
"06.04.2024 02:15";77
"06.04.2024 02:30";76
"06.04.2024 02:45";76
"06.04.2024 03:00";76
"06.04.2024 03:15";76
"06.04.2024 03:30";76
"06.04.2024 03:45";75
"06.04.2024 04:00";75
"06.04.2024 04:15";75
"06.04.2024 04:30";75
"06.04.2024 04:45";75
"06.04.2024 05:00";75
"06.04.2024 05:15";75
"06.04.2024 05:30";75
"06.04.2024 05:45";75
"06.04.2024 06:00";75
"06.04.2024 06:15";75
"06.04.2024 06:30";75
"06.04.2024 06:45";75
"06.04.2024 07:00";75
"06.04.2024 07:15";74
"06.04.2024 07:30";74
"06.04.2024 07:45";74
"06.04.2024 08:00";74
"06.04.2024 08:15";74
"06.04.2024 08:30";74
"06.04.2024 08:45";74
"06.04.2024 09:00";75
"06.04.2024 09:15";75
"06.04.2024 09:30";75
"06.04.2024 09:45";75
"06.04.2024 10:00";75
"06.04.2024 10:15";75
"06.04.2024 10:30";76
"06.04.2024 10:45";76
"06.04.2024 11:00";76
"06.04.2024 11:15";76
"06.04.2024 11:30";76
"06.04.2024 11:45";76
"06.04.2024 12:00";76
"06.04.2024 12:15";76
"06.04.2024 12:30";76
"06.04.2024 12:45";76
"06.04.2024 13:00";76
"06.04.2024 13:15";76
"06.04.2024 13:30";76
"06.04.2024 13:45";76
"06.04.2024 14:00";76
"06.04.2024 14:15";76
"06.04.2024 14:30";76
"06.04.2024 14:45";76
"06.04.2024 15:00";76
"06.04.2024 15:15";75
"06.04.2024 15:30";75
"06.04.2024 15:45";75
"06.04.2024 16:00";75
"06.04.2024 16:15";75
"06.04.2024 16:30";75
"06.04.2024 16:45";75
"06.04.2024 17:00";75
"06.04.2024 17:15";75
"06.04.2024 17:30";75
"06.04.2024 17:45";75
"06.04.2024 18:00";75
"06.04.2024 18:15";75
"06.04.2024 18:30";75
"06.04.2024 18:45";75
"06.04.2024 19:00";75
"06.04.2024 19:15";75
"06.04.2024 19:30";75
"06.04.2024 19:45";75
"06.04.2024 20:00";75
"06.04.2024 20:15";75
"06.04.2024 20:30";74
"06.04.2024 20:45";74
"06.04.2024 21:00";74
"06.04.2024 21:15";75
"06.04.2024 21:30";74
"06.04.2024 21:45";74
"06.04.2024 22:00";74
"06.04.2024 22:15";74
"06.04.2024 22:30";74
"06.04.2024 22:45";74
"06.04.2024 23:00";74
"06.04.2024 23:15";74
"06.04.2024 23:30";74
"06.04.2024 23:45";74
"07.04.2024 00:00";74
"07.04.2024 00:15";74
"07.04.2024 00:30";73
"07.04.2024 00:45";73
"07.04.2024 01:00";73
"07.04.2024 01:15";73
"07.04.2024 01:30";73
"07.04.2024 01:45";73
"07.04.2024 02:00";72
"07.04.2024 02:15";72
"07.04.2024 02:30";72
"07.04.2024 02:45";72
"07.04.2024 03:00";72
"07.04.2024 03:15";72
"07.04.2024 03:30";72
"07.04.2024 03:45";72
"07.04.2024 04:00";72
"07.04.2024 04:15";72
"07.04.2024 04:30";72
"07.04.2024 04:45";72
"07.04.2024 05:00";71
"07.04.2024 05:15";71
"07.04.2024 05:30";71
"07.04.2024 05:45";71
"07.04.2024 06:00";71
"07.04.2024 06:15";71
"07.04.2024 06:30";71
"07.04.2024 06:45";71
"07.04.2024 07:00";71
"07.04.2024 07:15";71
"07.04.2024 07:30";71
"07.04.2024 07:45";71
"07.04.2024 08:00";71
"07.04.2024 08:15";71
"07.04.2024 08:30";71
"07.04.2024 08:45";71
"07.04.2024 09:00";71
"07.04.2024 09:15";72
"07.04.2024 09:30";72
"07.04.2024 09:45";72
"07.04.2024 10:00";73
"07.04.2024 10:15";73
"07.04.2024 10:30";73
"07.04.2024 10:45";73
"07.04.2024 11:00";73
"07.04.2024 11:15";73
"07.04.2024 11:30";73
"07.04.2024 11:45";74
"07.04.2024 12:00";74
"07.04.2024 12:15";74
"07.04.2024 12:30";74
"07.04.2024 12:45";74
"07.04.2024 13:00";74
"07.04.2024 13:15";74
"07.04.2024 13:30";74
"07.04.2024 13:45";74
"07.04.2024 14:00";74
"07.04.2024 14:15";74
"07.04.2024 14:30";74
"07.04.2024 14:45";74
"07.04.2024 15:00";74
"07.04.2024 15:15";74
"07.04.2024 15:30";73
"07.04.2024 15:45";73
"07.04.2024 16:00";73
"07.04.2024 16:15";73
"07.04.2024 16:30";73
"07.04.2024 16:45";73
"07.04.2024 17:00";73
"07.04.2024 17:15";73
"07.04.2024 17:30";73
"07.04.2024 17:45";73
"07.04.2024 18:00";73
"07.04.2024 18:15";73
"07.04.2024 18:30";73
"07.04.2024 18:45";73
"07.04.2024 19:00";73
"07.04.2024 19:15";73
"07.04.2024 19:30";73
"07.04.2024 19:45";73
"07.04.2024 20:00";73
"07.04.2024 20:15";73
"07.04.2024 20:30";74
"07.04.2024 20:45";74
"07.04.2024 21:00";74
"07.04.2024 21:15";74
"07.04.2024 21:30";74
"07.04.2024 21:45";74
"07.04.2024 22:00";74
"07.04.2024 22:15";74
"07.04.2024 22:30";74
"07.04.2024 22:45";74
"07.04.2024 23:00";74
"07.04.2024 23:15";73
"07.04.2024 23:30";73
"07.04.2024 23:45";73
"08.04.2024 00:00";73
"08.04.2024 00:15";73
"08.04.2024 00:30";73
"08.04.2024 00:45";72
"08.04.2024 01:00";72
"08.04.2024 01:15";72
"08.04.2024 01:30";72
"08.04.2024 01:45";72
"08.04.2024 02:00";71
"08.04.2024 02:15";71
"08.04.2024 02:30";71
"08.04.2024 02:45";71
"08.04.2024 03:00";71
"08.04.2024 03:15";71
"08.04.2024 03:30";71
"08.04.2024 03:45";71
"08.04.2024 04:00";71
"08.04.2024 04:15";70
"08.04.2024 04:30";70
"08.04.2024 04:45";70
"08.04.2024 05:00";70
"08.04.2024 05:15";70
"08.04.2024 05:30";70
"08.04.2024 05:45";70
"08.04.2024 06:00";70
"08.04.2024 06:15";70
"08.04.2024 06:30";70
"08.04.2024 06:45";70
"08.04.2024 07:00";70
"08.04.2024 07:15";71
"08.04.2024 07:30";71
"08.04.2024 07:45";71
"08.04.2024 08:00";72
"08.04.2024 08:15";72
"08.04.2024 08:30";72
"08.04.2024 08:45";73
"08.04.2024 09:00";73
"08.04.2024 09:15";73
"08.04.2024 09:30";73
"08.04.2024 09:45";73
"08.04.2024 10:00";74
"08.04.2024 10:15";74
"08.04.2024 10:30";74
"08.04.2024 10:45";74
"08.04.2024 11:00";74
"08.04.2024 11:15";74
"08.04.2024 11:30";74
"08.04.2024 11:45";74
"08.04.2024 12:00";74
"08.04.2024 12:15";74
"08.04.2024 12:30";74
"08.04.2024 12:45";74
"08.04.2024 13:00";74
"08.04.2024 13:15";74
"08.04.2024 13:30";74
"08.04.2024 13:45";74
"08.04.2024 14:00";74
"08.04.2024 14:15";74
"08.04.2024 14:30";74
"08.04.2024 14:45";74
"08.04.2024 15:00";74
"08.04.2024 15:15";74
"08.04.2024 15:30";74
"08.04.2024 15:45";74
"08.04.2024 16:00";74
"08.04.2024 16:15";73
"08.04.2024 16:30";73
"08.04.2024 16:45";73
"08.04.2024 17:00";73
"08.04.2024 17:15";73
"08.04.2024 17:30";73
"08.04.2024 17:45";73
"08.04.2024 18:00";73
"08.04.2024 18:15";73
"08.04.2024 18:30";73
"08.04.2024 18:45";73
"08.04.2024 19:00";73
"08.04.2024 19:15";73
"08.04.2024 19:30";73
"08.04.2024 19:45";73
"08.04.2024 20:00";73
"08.04.2024 20:15";73
"08.04.2024 20:30";73
"08.04.2024 20:45";73
"08.04.2024 21:00";73
"08.04.2024 21:15";74
"08.04.2024 21:30";74
"08.04.2024 21:45";74
"08.04.2024 22:00";73
"08.04.2024 22:15";73
"08.04.2024 22:30";73
"08.04.2024 22:45";73
"08.04.2024 23:00";73
"08.04.2024 23:15";73
"08.04.2024 23:30";73
"08.04.2024 23:45";73
"09.04.2024 00:00";73
"09.04.2024 00:15";72
"09.04.2024 00:30";72
"09.04.2024 00:45";72
"09.04.2024 01:00";72
"09.04.2024 01:15";72
"09.04.2024 01:30";72
"09.04.2024 01:45";72
"09.04.2024 02:00";72
"09.04.2024 02:15";72
"09.04.2024 02:30";71
"09.04.2024 02:45";71
"09.04.2024 03:00";71
"09.04.2024 03:15";71
"09.04.2024 03:30";71
"09.04.2024 03:45";71
"09.04.2024 04:00";71
"09.04.2024 04:15";71
"09.04.2024 04:30";71
"09.04.2024 04:45";71
"09.04.2024 05:00";71
"09.04.2024 05:15";71
"09.04.2024 05:30";71
"09.04.2024 05:45";71
"09.04.2024 06:00";70
"09.04.2024 06:15";70
"09.04.2024 06:30";70
"09.04.2024 06:45";70
"09.04.2024 07:00";71
"09.04.2024 07:15";71
"09.04.2024 07:30";71
"09.04.2024 07:45";72
"09.04.2024 08:00";72
"09.04.2024 08:15";72
"09.04.2024 08:30";73
"09.04.2024 08:45";73
"09.04.2024 09:00";73
"09.04.2024 09:15";73
"09.04.2024 09:30";73
"09.04.2024 09:45";74
"09.04.2024 10:00";74
"09.04.2024 10:15";74
"09.04.2024 10:30";74
"09.04.2024 10:45";74
"09.04.2024 11:00";74
"09.04.2024 11:15";74
"09.04.2024 11:30";74
"09.04.2024 11:45";74
"09.04.2024 12:00";74
"09.04.2024 12:15";74
"09.04.2024 12:30";74
"09.04.2024 12:45";74
"09.04.2024 13:00";74
"09.04.2024 13:15";74
"09.04.2024 13:30";74
"09.04.2024 13:45";74
"09.04.2024 14:00";73
"09.04.2024 14:15";73
"09.04.2024 14:30";73
"09.04.2024 14:45";73
"09.04.2024 15:00";73
"09.04.2024 15:15";73
"09.04.2024 15:30";73
"09.04.2024 15:45";73
"09.04.2024 16:00";73
"09.04.2024 16:15";73
"09.04.2024 16:30";73
"09.04.2024 16:45";73
"09.04.2024 17:00";73
"09.04.2024 17:15";72
"09.04.2024 17:30";72
"09.04.2024 17:45";72
"09.04.2024 18:00";72
"09.04.2024 18:15";72
"09.04.2024 18:30";72
"09.04.2024 18:45";72
"09.04.2024 19:00";72
"09.04.2024 19:15";72
"09.04.2024 19:30";73
"09.04.2024 19:45";73
"09.04.2024 20:00";73
"09.04.2024 20:15";73
"09.04.2024 20:30";73
"09.04.2024 20:45";73
"09.04.2024 21:00";73
"09.04.2024 21:15";73
"09.04.2024 21:30";73
"09.04.2024 21:45";72
"09.04.2024 22:00";72
"09.04.2024 22:15";72
"09.04.2024 22:30";73
"09.04.2024 22:45";73
"09.04.2024 23:00";73
"09.04.2024 23:15";72
"09.04.2024 23:30";72
"09.04.2024 23:45";72
"10.04.2024 00:00";72
"10.04.2024 00:15";72
"10.04.2024 00:30";72
"10.04.2024 00:45";71
"10.04.2024 01:00";71
"10.04.2024 01:15";71
"10.04.2024 01:30";71
"10.04.2024 01:45";71
"10.04.2024 02:00";70
"10.04.2024 02:15";70
"10.04.2024 02:30";70
"10.04.2024 02:45";70
"10.04.2024 03:00";70
"10.04.2024 03:15";70
"10.04.2024 03:30";70
"10.04.2024 03:45";70
"10.04.2024 04:00";70
"10.04.2024 04:15";70
"10.04.2024 04:30";70
"10.04.2024 04:45";70
"10.04.2024 05:00";70
"10.04.2024 05:15";70
"10.04.2024 05:30";70
"10.04.2024 05:45";70
"10.04.2024 06:00";70
"10.04.2024 06:15";70
"10.04.2024 06:30";70
"10.04.2024 06:45";70
"10.04.2024 07:00";70
"10.04.2024 07:15";70
"10.04.2024 07:30";71
"10.04.2024 07:45";71
"10.04.2024 08:00";71
"10.04.2024 08:15";72
"10.04.2024 08:30";72
"10.04.2024 08:45";72
"10.04.2024 09:00";72
"10.04.2024 09:15";72
"10.04.2024 09:30";73
"10.04.2024 09:45";73
"10.04.2024 10:00";73
"10.04.2024 10:15";73
"10.04.2024 10:30";73
"10.04.2024 10:45";73
"10.04.2024 11:00";73
"10.04.2024 11:15";73
"10.04.2024 11:30";73
"10.04.2024 11:45";73
"10.04.2024 12:00";73
"10.04.2024 12:15";73
"10.04.2024 12:30";73
"10.04.2024 12:45";73
"10.04.2024 13:00";73
"10.04.2024 13:15";73
"10.04.2024 13:30";73
"10.04.2024 13:45";73
"10.04.2024 14:00";73
"10.04.2024 14:15";72
"10.04.2024 14:30";72
"10.04.2024 14:45";72
"10.04.2024 15:00";72
"10.04.2024 15:15";72
"10.04.2024 15:30";72
"10.04.2024 15:45";72
"10.04.2024 16:00";72
"10.04.2024 16:15";72
"10.04.2024 16:30";72
"10.04.2024 16:45";72
"10.04.2024 17:00";71
"10.04.2024 17:15";71
"10.04.2024 17:30";71
"10.04.2024 17:45";70
"10.04.2024 18:00";70
"10.04.2024 18:15";70
"10.04.2024 18:30";71
"10.04.2024 18:45";71
"10.04.2024 19:00";71
"10.04.2024 19:15";71
"10.04.2024 19:30";71
"10.04.2024 19:45";71
"10.04.2024 20:00";71
"10.04.2024 20:15";71
"10.04.2024 20:30";71
"10.04.2024 20:45";71
"10.04.2024 21:00";71
"10.04.2024 21:15";72
"10.04.2024 21:30";72
"10.04.2024 21:45";72
"10.04.2024 22:00";72
"10.04.2024 22:15";72
"10.04.2024 22:30";72
"10.04.2024 22:45";73
"10.04.2024 23:00";73
"10.04.2024 23:15";72
"10.04.2024 23:30";72
"10.04.2024 23:45";72
"11.04.2024 00:00";72
"11.04.2024 00:15";72
"11.04.2024 00:30";72
"11.04.2024 00:45";72
"11.04.2024 01:00";72
"11.04.2024 01:15";72
"11.04.2024 01:30";71
"11.04.2024 01:45";71
"11.04.2024 02:00";71
"11.04.2024 02:15";70
"11.04.2024 02:30";70
"11.04.2024 02:45";70
"11.04.2024 03:00";70
"11.04.2024 03:15";69
"11.04.2024 03:30";69
"11.04.2024 03:45";69
"11.04.2024 04:00";69
"11.04.2024 04:15";69
"11.04.2024 04:30";69
"11.04.2024 04:45";69
"11.04.2024 05:00";69
"11.04.2024 05:15";69
"11.04.2024 05:30";69
"11.04.2024 05:45";69
"11.04.2024 06:00";69
"11.04.2024 06:15";69
"11.04.2024 06:30";69
"11.04.2024 06:45";69
"11.04.2024 07:00";69
"11.04.2024 07:15";69
"11.04.2024 07:30";70
"11.04.2024 07:45";70
"11.04.2024 08:00";70
"11.04.2024 08:15";71
"11.04.2024 08:30";71
"11.04.2024 08:45";71
"11.04.2024 09:00";71
"11.04.2024 09:15";72
"11.04.2024 09:30";72
"11.04.2024 09:45";72
"11.04.2024 10:00";73
"11.04.2024 10:15";73
"11.04.2024 10:30";73
"11.04.2024 10:45";73
"11.04.2024 11:00";73
"11.04.2024 11:15";73
"11.04.2024 11:30";73
"11.04.2024 11:45";73
"11.04.2024 12:00";73
"11.04.2024 12:15";73
"11.04.2024 12:30";73
"11.04.2024 12:45";73
"11.04.2024 13:00";73
"11.04.2024 13:15";73
"11.04.2024 13:30";72
"11.04.2024 13:45";72
"11.04.2024 14:00";72
"11.04.2024 14:15";72
"11.04.2024 14:30";72
"11.04.2024 14:45";72
"11.04.2024 15:00";72
"11.04.2024 15:15";72
"11.04.2024 15:30";72
"11.04.2024 15:45";72
"11.04.2024 16:00";72
"11.04.2024 16:15";72
"11.04.2024 16:30";72
"11.04.2024 16:45";72
"11.04.2024 17:00";72
"11.04.2024 17:15";71
"11.04.2024 17:30";71
"11.04.2024 17:45";71
"11.04.2024 18:00";71
"11.04.2024 18:15";71
"11.04.2024 18:30";71
"11.04.2024 18:45";71
"11.04.2024 19:00";71
"11.04.2024 19:15";71
"11.04.2024 19:30";71
"11.04.2024 19:45";71
"11.04.2024 20:00";71
"11.04.2024 20:15";71
"11.04.2024 20:30";71
"11.04.2024 20:45";71
"11.04.2024 21:00";71
"11.04.2024 21:15";72
"11.04.2024 21:30";72
"11.04.2024 21:45";72
"11.04.2024 22:00";72
"11.04.2024 22:15";72
"11.04.2024 22:30";72
"11.04.2024 22:45";72
"11.04.2024 23:00";72
"11.04.2024 23:15";72
"11.04.2024 23:30";72
"11.04.2024 23:45";72
"12.04.2024 00:00";72
"12.04.2024 00:15";71
"12.04.2024 00:30";71
"12.04.2024 00:45";71
"12.04.2024 01:00";70
"12.04.2024 01:15";70
"12.04.2024 01:30";70
"12.04.2024 01:45";70
"12.04.2024 02:00";70
"12.04.2024 02:15";70
"12.04.2024 02:30";70
"12.04.2024 02:45";70
"12.04.2024 03:00";69
"12.04.2024 03:15";69
"12.04.2024 03:30";69
"12.04.2024 03:45";69
"12.04.2024 04:00";69
"12.04.2024 04:15";68
"12.04.2024 04:30";68
"12.04.2024 04:45";68
"12.04.2024 05:00";68
"12.04.2024 05:15";68
"12.04.2024 05:30";68
"12.04.2024 05:45";68
"12.04.2024 06:00";68
"12.04.2024 06:15";68
"12.04.2024 06:30";68
"12.04.2024 06:45";68
"12.04.2024 07:00";69